[[{"header":{"parameterUnit":"m.s-1","parameterCategory":1,"la1":30.2991,"la2":30.254,"lo1":-89.0895,"lo2":-89.0444,"dy":0.0017,"dx":0.0017,"nx":28,"ny":28,"refTime":"2025-08-23T21:00:00:Z","depth":0,"parameterNumber":2,"parameterNumberName":"U-component_of_WINDS"},"data":[0,0,0,0,0,0,0,0,0,0,0,0,0,0,0,0,0,0,0,0,0,0,0,0,0,0,0,0,0,0,0,0,0,0,0,0,0,0,0,0,0,0,0,0,0,0,0,0,0,0,0,0,0,0,0,0,0,0,4.4934,4.4936,0,4.5147,4.515,4.5152,4.5127,4.5123,4.512,4.5117,4.5336,4.5345,4.5354,0,0,0,0,0,0,0,0,0,0,0,0,0,4.4503,4.4511,4.4934,4.4936,4.4939,4.5147,4.515,4.5153,4.5127,4.5123,4.5119,4.5115,4.5333,4.5344,4.5354,0,0,0,0,0,0,0,0,0,0,0,0,0,4.4701,4.4514,4.4933,4.4951,4.4955,4.5146,4.515,4.5153,4.5128,4.5123,4.5118,4.5113,4.5329,4.5343,4.5356,4.5543,0,0,4.5397,4.5403,0,0,0,0,0,0,0,0,4.4689,4.4716,4.4946,4.4951,4.4955,4.5105,4.5078,4.5284,4.513,4.5063,4.5117,4.5111,4.5263,4.5282,4.5333,4.5553,4.5562,4.5399,4.5407,4.5413,4.5416,0,0,0,0,0,0,0,4.4676,4.4707,4.5018,4.4949,4.4955,4.4949,4.4971,4.5117,4.5189,4.5068,4.5067,4.5092,4.5265,4.532,4.5338,4.5565,4.5398,4.541,4.5419,4.5424,4.5945,4.595,0,0,0,0,0,0,4.4658,4.4696,4.5011,4.5024,4.4807,4.496,4.4986,4.5062,4.5188,4.5202,4.5097,4.509,4.53,4.5323,4.5346,4.5569,4.5412,4.5425,4.5433,4.5939,4.5946,4.5952,0,0,0,0,0,0,4.4648,4.4686,4.5003,4.486,4.49,4.4973,4.506,4.5069,4.5124,4.5209,4.5222,4.514,4.5297,4.5327,4.5493,4.5577,4.5431,4.5444,4.5932,4.5941,4.5949,4.602,0,0,0,0,0,0,4.4636,4.4683,4.4755,4.4862,4.4907,4.5147,4.5065,4.5077,4.5148,4.5142,4.5253,4.5267,4.5295,4.5473,4.5506,4.5593,4.5454,4.5925,4.5936,4.5946,4.601,4.603,4.6047,0,0,0,0,0,4.4621,4.4767,4.4759,4.4797,4.4999,4.5152,4.5178,4.5207,4.5155,4.5227,4.5281,4.5263,4.5563,4.549,4.5528,4.5619,4.592,4.5933,4.5946,4.6002,4.6026,4.6046,0,0,0,0,0,0,4.4669,4.4782,4.4773,4.4959,4.5046,4.5147,4.5239,4.5232,4.5335,4.5326,4.5358,4.5383,4.555,4.5602,4.5519,4.5805,4.5734,4.5755,4.5764,4.5788,4.5805,4.5788,4.5465,0,0,0,0,0,4.4702,4.4816,4.4908,4.5063,4.5107,4.5166,4.5234,4.5248,4.534,4.5376,4.5442,4.5532,4.5645,4.572,4.583,4.6018,4.6041,4.61,4.6118,4.6132,4.6149,4.6249,4.6276,4.5994,4.5994,4.5994,0,0,4.4769,4.4845,4.4916,4.5075,4.5144,4.526,4.5197,4.5324,4.5411,4.5396,4.5555,4.5607,4.5709,4.5886,4.5967,4.5934,4.6232,4.6149,4.616,4.6169,4.6265,4.6292,4.6316,4.6003,4.6002,4.6,0,0,4.4952,4.5022,4.5157,4.5227,4.5331,4.5369,4.5402,4.5504,4.5537,4.5698,4.5688,4.5792,4.5988,4.606,4.6122,4.6329,4.6316,4.6365,4.6458,4.6555,4.6577,4.6597,4.6668,4.6693,4.6382,4.6382,4.6382,0,4.5023,4.5199,4.5227,4.5355,4.5424,4.5415,4.555,4.5617,4.5753,4.58,4.5761,4.6005,4.6074,4.6265,4.6315,4.6368,4.6404,4.6351,4.6572,4.6592,4.6611,4.6678,4.6705,4.6387,4.6386,4.6386,4.6385,0,4.5279,4.5401,4.5497,4.5626,4.5707,4.5838,4.5885,4.5963,4.5971,4.6012,4.6174,4.6256,4.638,4.6427,4.6437,4.662,4.6596,4.6565,4.6494,4.6642,4.6706,4.6732,4.6394,4.6392,4.6391,4.639,0,0,4.5498,4.564,4.5674,4.5731,4.5846,4.594,4.607,4.6191,4.6255,4.6349,4.6457,4.6623,4.6593,4.6664,4.6681,4.6767,4.6921,4.6725,4.6727,4.6755,4.7125,4.7145,4.7175,4.6914,4.6919,4.6923,4.7115,0,4.5689,4.5918,4.5946,4.6149,4.626,4.6253,4.6366,4.6447,4.6489,4.6589,4.6636,4.6751,4.6706,4.6748,4.6832,4.6885,4.6995,4.6872,4.7013,4.7017,4.6984,4.7209,4.7232,4.7409,4.714,4.7145,4.7148,0,4.5943,4.6041,4.6255,4.635,4.6398,4.6499,4.661,4.6707,4.6799,4.6823,4.6901,4.6906,4.7039,4.6965,4.7146,4.7061,4.7121,4.7155,4.7163,4.7175,4.7089,4.7224,4.7466,4.7491,4.7188,4.7185,4.7182,0,4.6076,4.6263,4.6414,4.6464,4.658,4.665,4.6702,4.6789,4.6859,4.6956,4.7001,4.7114,4.7175,4.7261,4.7296,4.7239,4.7475,4.7404,4.7497,4.7496,4.7545,4.7541,4.7797,4.7589,4.7589,4.7588,4.7587,0,4.6285,4.6415,4.6475,4.6568,4.6712,4.6744,4.6886,4.6935,4.7012,4.7113,4.7114,4.7209,4.7251,4.7352,4.7381,4.7525,4.7554,4.7576,4.7581,4.7574,4.7571,4.7612,4.7599,4.7595,4.7594,4.7592,4.7591,0,4.6458,4.6504,4.6667,4.6763,4.679,4.6892,4.6974,4.7063,4.7104,4.7232,4.7263,4.7327,4.7446,4.749,4.7636,4.7655,4.782,4.7818,4.7789,4.7789,4.7878,4.7868,4.8167,4.8207,4.7975,4.7977,4.7979,0,4.6586,4.6686,4.6792,4.6859,4.6913,4.7022,4.7093,4.7127,4.72,4.731,4.7386,4.7504,4.7599,4.7789,4.7848,4.7959,4.7957,4.8054,4.7973,4.7961,4.7954,4.7946,4.7955,4.8068,4.807,4.8072,4.8074,0,4.6809,4.6826,4.6927,4.7036,4.712,4.7208,4.7293,4.7348,4.7395,4.7477,4.7597,4.7672,4.7819,4.7935,4.8048,4.81,4.8094,4.8099,4.8125,4.8117,4.8095,4.8105,4.7826,4.8091,4.809,4.8088,4.8087,4.8087,4.6961,4.7048,4.7135,4.7247,4.7314,4.7393,4.748,4.7531,4.7632,4.7753,4.7768,4.7897,4.7984,4.8134,4.8192,4.8292,4.8266,4.8306,4.8315,4.8324,4.8328,4.8081,4.8314,4.8313,4.8313,4.8313,4.8312,0,4.718,4.7236,4.7339,4.7456,4.7544,4.7531,4.7624,4.7697,4.781,4.7892,4.7985,4.8123,4.8235,4.8302,4.8414,4.8482,4.8481,4.851,4.8503,4.8515,4.8347,4.8311,4.8507,4.8507,4.8507,4.8507,4.8507,4.8507,4.7305,4.7449,4.7476,4.7653,4.7708,4.7833,4.7887,4.7959,4.8023,4.8176,4.8269,4.8312,4.8387,4.8504,4.8605,4.8622,4.8662,4.8692,4.8706,4.8547,4.8527,4.8508,4.8474,4.8701,4.8702,4.8865,4.8866,4.8868]},{"header":{"parameterUnit":"m.s-1","parameterCategory":1,"la1":30.2991,"la2":30.254,"lo1":-89.0895,"lo2":-89.0444,"dy":0.0017,"dx":0.0017,"nx":28,"ny":28,"refTime":"2025-08-23T21:00:00:Z","depth":0,"parameterNumber":3,"parameterNumberName":"V-component_of_WINDS"},"data":[0,0,0,0,0,0,0,0,0,0,0,0,0,0,0,0,0,0,0,0,0,0,0,0,0,0,0,0,0,0,0,0,0,0,0,0,0,0,0,0,0,0,0,0,0,0,0,0,0,0,0,0,0,0,0,0,0,0,1.3857,1.3857,0,1.3817,1.3817,1.3816,1.3752,1.3751,1.375,1.3749,1.3709,1.3709,1.3709,0,0,0,0,0,0,0,0,0,0,0,0,0,1.3877,1.3877,1.3857,1.3857,1.3856,1.3817,1.3817,1.3816,1.3752,1.3751,1.375,1.3748,1.3709,1.3709,1.3709,0,0,0,0,0,0,0,0,0,0,0,0,0,1.3856,1.3877,1.3857,1.382,1.3816,1.3817,1.3817,1.3816,1.3753,1.3751,1.3749,1.3748,1.3709,1.3709,1.3709,1.3744,0,0,1.3709,1.3709,0,0,0,0,0,0,0,0,1.3857,1.3855,1.3826,1.3822,1.3818,1.3788,1.3809,1.3792,1.3753,1.3777,1.3749,1.3747,1.3736,1.3734,1.373,1.3742,1.374,1.3709,1.3709,1.3709,1.3709,0,0,0,0,0,0,0,1.3859,1.3857,1.3841,1.3825,1.3821,1.3804,1.3799,1.3805,1.3767,1.3774,1.377,1.3766,1.3734,1.3731,1.3729,1.374,1.3709,1.3709,1.3709,1.3709,1.3776,1.3777,0,0,0,0,0,0,1.3866,1.3858,1.3843,1.384,1.3834,1.3805,1.38,1.3799,1.3767,1.376,1.3767,1.3763,1.3731,1.3729,1.3727,1.3765,1.3709,1.3709,1.3709,1.3774,1.3776,1.3778,0,0,0,0,0,0,1.3866,1.3865,1.3844,1.3848,1.3844,1.3807,1.3807,1.3799,1.3796,1.3761,1.3754,1.3771,1.373,1.3727,1.374,1.3763,1.3709,1.3709,1.3772,1.3775,1.3777,1.3841,0,0,0,0,0,0,1.3867,1.3866,1.3879,1.3849,1.3844,1.3858,1.3808,1.38,1.3796,1.379,1.3763,1.3757,1.3728,1.374,1.374,1.3762,1.3709,1.377,1.3773,1.3776,1.3837,1.3846,1.3853,0,0,0,0,0,1.3868,1.3899,1.388,1.3879,1.386,1.3859,1.3857,1.3823,1.3798,1.3811,1.3788,1.3757,1.376,1.3742,1.3741,1.3763,1.3768,1.3772,1.3776,1.3833,1.3844,1.3853,0,0,0,0,0,0,1.3934,1.3895,1.3873,1.3895,1.3881,1.3848,1.3864,1.3836,1.3829,1.3823,1.3782,1.3777,1.3794,1.378,1.376,1.3794,1.3759,1.3763,1.3803,1.3813,1.3821,1.3824,1.3709,0,0,0,0,0,1.3951,1.3954,1.3919,1.3943,1.3936,1.3901,1.39,1.3875,1.3859,1.3853,1.3831,1.3816,1.3813,1.3812,1.3808,1.3835,1.3827,1.3849,1.3858,1.3864,1.3868,1.3879,1.3888,1.3791,1.3791,1.3791,0,0,1.3987,1.3966,1.397,1.3955,1.3941,1.3944,1.3897,1.3903,1.3904,1.3853,1.3863,1.3847,1.3827,1.3846,1.3854,1.3835,1.3893,1.387,1.3875,1.3875,1.3884,1.3893,1.3902,1.3794,1.3793,1.3793,0,0,1.4053,1.4038,1.4054,1.4041,1.402,1.3996,1.4,1.3971,1.3958,1.3967,1.3928,1.393,1.3926,1.3913,1.3907,1.3965,1.3936,1.3965,1.4008,1.4019,1.4027,1.4033,1.4053,1.4061,1.3969,1.3969,1.3969,0,1.41,1.4103,1.4067,1.4074,1.4068,1.4021,1.4037,1.4026,1.4005,1.4001,1.3981,1.3974,1.3958,1.3972,1.3986,1.3983,1.3985,1.3968,1.4029,1.4035,1.404,1.4059,1.4066,1.3973,1.3973,1.3972,1.3972,0,1.4161,1.4164,1.418,1.4159,1.4155,1.4167,1.4131,1.4131,1.4107,1.4085,1.4094,1.4072,1.4062,1.4063,1.404,1.4074,1.4063,1.4036,1.4,1.4054,1.407,1.4077,1.3978,1.3977,1.3976,1.3975,0,0,1.4269,1.4227,1.4233,1.4222,1.4195,1.4196,1.4205,1.4194,1.4194,1.4181,1.4187,1.4184,1.4158,1.415,1.4125,1.4135,1.418,1.4106,1.4105,1.412,1.4215,1.4234,1.4243,1.4161,1.4162,1.4163,1.4216,0,1.4328,1.4341,1.4308,1.4329,1.433,1.4284,1.4292,1.4275,1.4255,1.4252,1.423,1.4228,1.4195,1.4189,1.4197,1.4173,1.4199,1.4169,1.4165,1.4165,1.417,1.4252,1.4273,1.4324,1.4222,1.4223,1.4224,0,1.44,1.4389,1.441,1.438,1.4379,1.4386,1.4372,1.4371,1.4351,1.4335,1.4325,1.4295,1.43,1.4266,1.4272,1.4253,1.4249,1.4237,1.4238,1.4235,1.4198,1.4251,1.4339,1.4347,1.4234,1.4233,1.4232,0,1.4475,1.4465,1.4476,1.4469,1.4434,1.444,1.4425,1.4403,1.4398,1.4386,1.4382,1.4371,1.4365,1.4357,1.4324,1.4302,1.4334,1.4297,1.432,1.4321,1.4328,1.4328,1.4417,1.4328,1.4328,1.4327,1.4327,0,1.4544,1.4559,1.4509,1.4516,1.453,1.449,1.4505,1.4486,1.4467,1.4468,1.4429,1.4431,1.4387,1.4384,1.4359,1.4367,1.4365,1.4351,1.4344,1.4354,1.4356,1.4351,1.4346,1.4329,1.4329,1.4329,1.4328,0,1.463,1.4598,1.4606,1.4571,1.4563,1.4575,1.4545,1.4549,1.4525,1.4528,1.4526,1.4489,1.4483,1.4449,1.4436,1.4418,1.4436,1.4422,1.4442,1.4437,1.4462,1.446,1.4549,1.4559,1.4465,1.4466,1.4467,0,1.4676,1.4686,1.4652,1.465,1.4637,1.4635,1.4629,1.459,1.4585,1.4562,1.4569,1.456,1.455,1.4543,1.4515,1.4504,1.4489,1.4521,1.4487,1.4496,1.4488,1.4487,1.4487,1.4528,1.4529,1.453,1.4531,0,1.4761,1.4744,1.4737,1.4725,1.4718,1.4707,1.4692,1.4693,1.465,1.4646,1.464,1.4632,1.4618,1.4609,1.4593,1.4577,1.4547,1.4542,1.4546,1.4557,1.4568,1.456,1.4461,1.454,1.4539,1.4539,1.4538,1.4538,1.4828,1.4833,1.481,1.4803,1.4788,1.4775,1.4776,1.4752,1.4746,1.4731,1.4708,1.4704,1.4682,1.4657,1.4644,1.4639,1.4622,1.4629,1.4631,1.4633,1.4637,1.4569,1.4637,1.4636,1.4636,1.4636,1.4636,0,1.4909,1.4892,1.4886,1.4866,1.486,1.4832,1.4814,1.4811,1.4808,1.4789,1.478,1.4772,1.4762,1.4733,1.472,1.4722,1.4707,1.472,1.4719,1.4715,1.4654,1.4651,1.4732,1.4732,1.4732,1.4731,1.4731,1.4731,1.4951,1.4959,1.4939,1.4938,1.4919,1.4915,1.4907,1.4894,1.4879,1.4871,1.4863,1.4843,1.482,1.4804,1.4794,1.4785,1.4782,1.4799,1.4786,1.4729,1.472,1.4711,1.4708,1.4799,1.4799,1.4846,1.4847,1.4847]}]]